Location: Sternwarte ZA, Rosenfeld-Brittheim
(48.2889°N, 8.6789°E)
Time: 16:41:49
(UTC+02:00)

ISS - Pass Details

Date: 13 July 2018
Orbit: 402 x 408 km, 51.6° (Epoch: 20 July)

Event Time Altitude Azimuth Distance (km) Brightness Sun altitude
Exits shadow 03:30:38 15° 269° (W) 1,197 -1.7 -14.9°
Maximum altitude 03:33:12 57° 346° (NNW) 485 -3.2 -14.7°
Drops below altitude 10° 03:36:27 10° 67° (ENE) 1,474 -0.2 -14.4°
Sets 03:38:34 0° 71° (ENE) 2,337 0.8 -14.3°
